[[{"header":{"parameterUnit":"m.s-1","parameterCategory":1,"la1":30.2991,"la2":30.254,"lo1":-89.0895,"lo2":-89.0444,"dy":0.0017,"dx":0.0017,"nx":28,"ny":28,"refTime":"2023-07-23T21:00:00:Z","depth":0,"parameterNumber":2,"parameterNumberName":"U-component_of_WINDS"},"data":[0,0,0,0,0,0,0,0,0,0,0,0,0,0,0,0,0,0,0,0,0,0,0,0,0,0,0,0,0,0,0,0,0,0,0,0,0,0,0,0,0,0,0,0,0,0,0,0,0,0,0,0,0,0,0,0,0,0,1.7806,1.7807,0,1.7926,1.7927,1.7929,1.7928,1.7926,1.7925,1.7923,1.8045,1.805,1.8055,0,0,0,0,0,0,0,0,0,0,0,0,0,1.7571,1.7576,1.7805,1.7807,1.7808,1.7926,1.7928,1.7929,1.7928,1.7926,1.7924,1.7922,1.8044,1.8049,1.8055,0,0,0,0,0,0,0,0,0,0,0,0,0,1.7681,1.7577,1.7805,1.7822,1.7825,1.7926,1.7928,1.793,1.7929,1.7926,1.7924,1.7922,1.8042,1.8049,1.8056,1.8147,0,0,1.8078,1.8081,0,0,0,0,0,0,0,0,1.7674,1.7689,1.7818,1.7821,1.7824,1.791,1.789,1.8003,1.7929,1.7889,1.7923,1.792,1.8002,1.8012,1.804,1.8153,1.8158,1.8078,1.8083,1.8086,1.8088,0,0,0,0,0,0,0,1.7667,1.7684,1.7853,1.782,1.7824,1.7823,1.7836,1.7911,1.7957,1.7892,1.7893,1.7907,1.8003,1.8033,1.8043,1.816,1.8078,1.8084,1.8089,1.8092,1.8353,1.8355,0,0,0,0,0,0,1.7656,1.7678,1.7849,1.7857,1.7742,1.7829,1.7843,1.7885,1.7957,1.7965,1.7909,1.7907,1.8022,1.8035,1.8047,1.8158,1.8086,1.8092,1.8096,1.835,1.8353,1.8356,0,0,0,0,0,0,1.7651,1.7671,1.7844,1.7767,1.7789,1.7835,1.7882,1.7888,1.7918,1.7969,1.7977,1.7931,1.8021,1.8037,1.8122,1.8163,1.8095,1.8102,1.8347,1.8351,1.8355,1.8382,0,0,0,0,0,0,1.7644,1.767,1.7706,1.7768,1.7793,1.7918,1.7884,1.7892,1.7931,1.7929,1.7992,1.8,1.802,1.8112,1.8129,1.8171,1.8107,1.8343,1.8349,1.8353,1.8378,1.8386,1.8394,0,0,0,0,0,1.7636,1.7708,1.7707,1.7728,1.784,1.7921,1.7935,1.7957,1.7934,1.797,1.8002,1.7998,1.8155,1.812,1.814,1.8185,1.8341,1.8347,1.8353,1.8374,1.8385,1.8394,0,0,0,0,0,0,1.7649,1.7717,1.7717,1.7812,1.786,1.792,1.7967,1.7968,1.8024,1.8019,1.8043,1.8058,1.8142,1.8172,1.8132,1.8276,1.8245,1.8255,1.8254,1.8265,1.8273,1.8264,1.8113,0,0,0,0,0,1.7663,1.7724,1.778,1.7858,1.7883,1.792,1.7957,1.7969,1.802,1.8041,1.808,1.8129,1.8189,1.8229,1.8287,1.8381,1.8395,1.8422,1.843,1.8436,1.8445,1.8496,1.8509,1.8376,1.8376,1.8376,0,0,1.7693,1.7737,1.7774,1.7862,1.7901,1.7963,1.7938,1.8005,1.805,1.8051,1.8134,1.8163,1.822,1.831,1.8352,1.8337,1.8485,1.8444,1.8449,1.8454,1.8504,1.8516,1.8528,1.838,1.8379,1.8379,0,0,1.7778,1.7819,1.7888,1.7928,1.7987,1.8012,1.8028,1.8088,1.8108,1.8191,1.8192,1.8246,1.835,1.839,1.8424,1.8523,1.8521,1.8541,1.8584,1.8633,1.8644,1.8653,1.8688,1.87,1.8549,1.855,1.855,0,1.7808,1.7902,1.7923,1.799,1.8028,1.8031,1.8101,1.8138,1.8214,1.8239,1.8222,1.8351,1.839,1.8489,1.8513,1.854,1.8559,1.8534,1.8641,1.865,1.8659,1.8693,1.8706,1.8552,1.8551,1.8551,1.8551,0,1.7934,1.7999,1.8048,1.8121,1.8164,1.8232,1.8263,1.8304,1.8312,1.8337,1.8421,1.8467,1.8535,1.8559,1.8568,1.8659,1.8648,1.8636,1.8605,1.8674,1.8706,1.8719,1.8554,1.8554,1.8553,1.8553,0,0,1.8033,1.8116,1.8133,1.8166,1.8231,1.8281,1.8349,1.8415,1.8449,1.85,1.8557,1.8644,1.8632,1.8671,1.8683,1.8727,1.8802,1.8709,1.8711,1.8725,1.8904,1.8913,1.8928,1.88,1.8803,1.8805,1.8899,0,1.8125,1.8246,1.8266,1.8371,1.8431,1.8434,1.8492,1.8538,1.8563,1.8617,1.8644,1.8706,1.8686,1.8709,1.8752,1.8783,1.8838,1.8777,1.8853,1.8855,1.8839,1.8945,1.8955,1.9042,1.8912,1.8914,1.8916,0,1.825,1.8304,1.8415,1.8471,1.8497,1.8549,1.8611,1.8662,1.8713,1.8729,1.8771,1.8778,1.8847,1.8812,1.8907,1.8865,1.8897,1.8917,1.8921,1.8929,1.889,1.8956,1.907,1.9083,1.8935,1.8934,1.8932,0,1.831,1.8411,1.8491,1.8518,1.8586,1.8622,1.8652,1.8701,1.8739,1.8792,1.8817,1.8877,1.891,1.8956,1.898,1.8952,1.9073,1.904,1.9087,1.9086,1.9113,1.9111,1.9234,1.9133,1.9133,1.9132,1.9132,0,1.8411,1.8479,1.8518,1.8567,1.8643,1.8665,1.8739,1.8767,1.8811,1.8864,1.887,1.892,1.8948,1.9002,1.902,1.9095,1.911,1.9124,1.9128,1.9124,1.9122,1.9146,1.914,1.9136,1.9135,1.9135,1.9134,0,1.8492,1.8521,1.8608,1.8664,1.868,1.8733,1.8781,1.8828,1.8852,1.892,1.8937,1.8976,1.9039,1.9067,1.9145,1.9157,1.9244,1.9243,1.9226,1.9228,1.9273,1.9268,1.9416,1.9436,1.9321,1.9322,1.9323,0,1.8555,1.8607,1.8669,1.8705,1.8736,1.8795,1.8833,1.8857,1.8896,1.8958,1.8997,1.9061,1.9113,1.9214,1.9249,1.9309,1.931,1.9357,1.9319,1.9312,1.931,1.9307,1.9312,1.9364,1.9366,1.9367,1.9367,0,1.8663,1.8675,1.873,1.8791,1.8837,1.8885,1.8933,1.8962,1.8993,1.9037,1.9102,1.9142,1.9222,1.9285,1.9346,1.9376,1.9377,1.9379,1.9393,1.9389,1.9377,1.9384,1.9246,1.9376,1.9375,1.9374,1.9374,1.9373,1.8737,1.8783,1.8834,1.8895,1.8933,1.8977,1.9024,1.9054,1.9109,1.9175,1.9185,1.9255,1.9303,1.9386,1.9418,1.9472,1.946,1.948,1.9486,1.949,1.9493,1.9368,1.9483,1.9483,1.9483,1.9483,1.9482,0,1.8846,1.8878,1.8934,1.9,1.9048,1.9044,1.9096,1.9137,1.9198,1.9243,1.9294,1.9368,1.9429,1.9468,1.9529,1.9565,1.9567,1.958,1.9578,1.9585,1.95,1.9482,1.9577,1.9577,1.9577,1.9577,1.9577,1.9577,1.8908,1.8985,1.9003,1.9098,1.913,1.9198,1.9228,1.9268,1.9305,1.9387,1.9438,1.9463,1.9505,1.9569,1.9625,1.9634,1.9657,1.9671,1.968,1.96,1.9591,1.9581,1.9564,1.9675,1.9675,1.976,1.976,1.9761]},{"header":{"parameterUnit":"m.s-1","parameterCategory":1,"la1":30.2991,"la2":30.254,"lo1":-89.0895,"lo2":-89.0444,"dy":0.0017,"dx":0.0017,"nx":28,"ny":28,"refTime":"2023-07-23T21:00:00:Z","depth":0,"parameterNumber":3,"parameterNumberName":"V-component_of_WINDS"},"data":[0,0,0,0,0,0,0,0,0,0,0,0,0,0,0,0,0,0,0,0,0,0,0,0,0,0,0,0,0,0,0,0,0,0,0,0,0,0,0,0,0,0,0,0,0,0,0,0,0,0,0,0,0,0,0,0,0,0,2.3718,2.3719,0,2.3834,2.3835,2.3836,2.3843,2.3841,2.384,2.3839,2.3958,2.3963,2.3967,0,0,0,0,0,0,0,0,0,0,0,0,0,2.3503,2.3507,2.3717,2.3719,2.372,2.3833,2.3835,2.3837,2.3843,2.3841,2.384,2.3838,2.3957,2.3962,2.3967,0,0,0,0,0,0,0,0,0,0,0,0,0,2.3605,2.3508,2.3717,2.3737,2.374,2.3833,2.3835,2.3837,2.3843,2.3841,2.3839,2.3837,2.3955,2.3961,2.3968,2.4049,0,0,2.3988,2.3991,0,0,0,0,0,0,0,0,2.3599,2.3613,2.3733,2.3736,2.3739,2.3822,2.3803,2.3908,2.3844,2.3804,2.3839,2.3836,2.3914,2.3924,2.395,2.4055,2.406,2.3989,2.3993,2.3996,2.3998,0,0,0,0,0,0,0,2.3592,2.3608,2.3763,2.3734,2.3739,2.3741,2.3753,2.3823,2.3869,2.3807,2.3808,2.3822,2.3916,2.3944,2.3953,2.4062,2.3989,2.3995,2.3999,2.4001,2.4242,2.4244,0,0,0,0,0,0,2.3581,2.3602,2.376,2.3767,2.3663,2.3746,2.376,2.3797,2.3868,2.3877,2.3823,2.3822,2.3934,2.3946,2.3958,2.4061,2.3996,2.4002,2.4006,2.424,2.4243,2.4245,0,0,0,0,0,0,2.3576,2.3595,2.3755,2.3685,2.3705,2.3752,2.3794,2.3801,2.3829,2.388,2.3889,2.3844,2.3933,2.3948,2.4027,2.4065,2.4005,2.4011,2.4237,2.4241,2.4244,2.4266,0,0,0,0,0,0,2.357,2.3593,2.3625,2.3685,2.3709,2.3823,2.3796,2.3804,2.384,2.3839,2.3902,2.391,2.3932,2.4017,2.4034,2.4073,2.4016,2.4234,2.4239,2.4243,2.4263,2.427,2.4277,0,0,0,0,0,2.3563,2.3626,2.3626,2.3645,2.3749,2.3825,2.3838,2.3862,2.3843,2.3876,2.3909,2.3908,2.4057,2.4025,2.4044,2.4086,2.4232,2.4237,2.4243,2.4259,2.4269,2.4277,0,0,0,0,0,0,2.3568,2.3634,2.3635,2.372,2.3767,2.3826,2.3867,2.3871,2.3924,2.3921,2.3948,2.3962,2.4042,2.4071,2.4034,2.417,2.4142,2.4152,2.4149,2.4158,2.4165,2.4159,2.4022,0,0,0,0,0,2.3579,2.3635,2.3689,2.3758,2.3782,2.382,2.3854,2.3868,2.3918,2.3938,2.3977,2.4026,2.4084,2.4122,2.4178,2.4265,2.4281,2.4303,2.431,2.4316,2.4325,2.4377,2.4389,2.4263,2.4263,2.4263,0,0,2.3603,2.3645,2.3679,2.3761,2.3799,2.3857,2.3837,2.3899,2.3943,2.3948,2.4026,2.4056,2.4112,2.4197,2.4236,2.4224,2.4363,2.4323,2.4327,2.4333,2.4384,2.4396,2.4407,2.4267,2.4266,2.4266,0,0,2.3677,2.3713,2.3776,2.3815,2.3873,2.3898,2.3913,2.3972,2.3992,2.4071,2.4076,2.4128,2.4227,2.4268,2.4302,2.4391,2.4394,2.4408,2.4447,2.4498,2.4508,2.4517,2.4553,2.4565,2.4416,2.4416,2.4416,0,2.3699,2.3787,2.3808,2.3872,2.3909,2.3914,2.398,2.4016,2.4089,2.4115,2.41,2.4226,2.4263,2.4359,2.4381,2.4407,2.4427,2.4403,2.4504,2.4514,2.4522,2.4557,2.457,2.4418,2.4418,2.4417,2.4417,0,2.3814,2.3875,2.3919,2.3991,2.4032,2.4095,2.4128,2.4167,2.4177,2.4204,2.4285,2.433,2.4397,2.442,2.443,2.4518,2.4509,2.4498,2.4473,2.4536,2.4569,2.4583,2.442,2.442,2.4419,2.4419,0,0,2.3898,2.398,2.3997,2.403,2.4094,2.4142,2.4206,2.4272,2.4307,2.4356,2.4413,2.4496,2.4487,2.4525,2.4539,2.4583,2.4656,2.4567,2.4569,2.4586,2.4761,2.4772,2.4787,2.4656,2.4658,2.466,2.4758,0,2.3983,2.4098,2.412,2.4221,2.4279,2.4285,2.4341,2.4387,2.4413,2.4467,2.4496,2.4557,2.4538,2.4561,2.4604,2.4638,2.4692,2.463,2.4712,2.4715,2.4704,2.4804,2.4816,2.4906,2.477,2.4772,2.4774,0,2.4098,2.4152,2.4259,2.4317,2.4342,2.4393,2.4456,2.4506,2.4558,2.4574,2.4617,2.4627,2.4695,2.4662,2.4758,2.4716,2.475,2.4772,2.4776,2.4789,2.4752,2.4824,2.4934,2.495,2.4794,2.4792,2.4791,0,2.4155,2.4253,2.4331,2.4359,2.4427,2.4463,2.4493,2.4543,2.4582,2.4636,2.4662,2.4723,2.4758,2.4805,2.4832,2.4804,2.4928,2.4896,2.4946,2.4946,2.4976,2.4975,2.5098,2.4989,2.4989,2.4989,2.4988,0,2.4251,2.4318,2.4358,2.4407,2.4482,2.4504,2.4579,2.4608,2.4653,2.4708,2.4714,2.4766,2.4795,2.4852,2.4872,2.4951,2.4965,2.4982,2.4988,2.4985,2.4984,2.5012,2.5008,2.4992,2.4991,2.4991,2.499,0,2.433,2.4359,2.4445,2.4502,2.4518,2.4571,2.4621,2.4669,2.4694,2.4764,2.4782,2.4822,2.4889,2.4919,2.5,2.5014,2.5106,2.5104,2.5089,2.5092,2.5143,2.514,2.5293,2.5316,2.5187,2.5188,2.5189,0,2.4392,2.4443,2.4506,2.4544,2.4575,2.4635,2.4674,2.4698,2.4739,2.4803,2.4844,2.491,2.4966,2.5072,2.511,2.5173,2.5176,2.5225,2.5186,2.5182,2.5183,2.5182,2.5189,2.5235,2.5236,2.5237,2.5238,0,2.45,2.4512,2.4569,2.4631,2.4678,2.4728,2.4777,2.4808,2.4839,2.4885,2.4954,2.4996,2.508,2.5148,2.5213,2.5245,2.5249,2.5249,2.5265,2.5265,2.5257,2.5267,2.5115,2.5247,2.5246,2.5245,2.5245,2.5244,2.4576,2.4624,2.4676,2.474,2.4779,2.4824,2.4873,2.4905,2.4962,2.5033,2.5042,2.5117,2.5168,2.5257,2.5291,2.535,2.5338,2.536,2.5367,2.5373,2.5379,2.5242,2.5361,2.5361,2.5361,2.5361,2.536,0,2.469,2.4724,2.4781,2.485,2.4901,2.4896,2.495,2.4993,2.5059,2.5106,2.516,2.524,2.5306,2.5347,2.5414,2.5453,2.5457,2.5471,2.5471,2.5479,2.5383,2.5365,2.5467,2.5467,2.5467,2.5467,2.5467,2.5467,2.4756,2.4837,2.4855,2.4956,2.4989,2.5062,2.5094,2.5137,2.5175,2.5264,2.5319,2.5345,2.5391,2.5461,2.5522,2.5532,2.5559,2.5574,2.5585,2.5496,2.5485,2.5475,2.5458,2.5578,2.5578,2.5677,2.5678,2.5678]}]]